Погода в Але

Швеция     57°55′07″N   12°08′00″E
темп.,
°C
ветер,
м/с
пор.,
м/с
влажн.,
%
обл.,
%
осадки,
мм/ч
давл.,
гПа
погр.,
м
23 апреля, пт
пт2323:00+3ссз256536 0.1 101796
02:00+1ссз246368 0.1 101864
05:000сз22621 0.0 101940
08:00+4с510390 0.0 10201101
11:00+8ссз59260 0.0 10202333
14:00+10с4720100 0.0 10203161
17:00+9сз3525100 0.0 10202518
20:00+6сз244873 0.0 1022192
24 апреля, сб
сб2423:00+2ссв116426 0.0 102313
02:00+1с396175 0.0 1024314
05:00−1с310600 0.0 1024324
08:00+2с410430 0.0 1025896
11:00+6с510265 0.0 10242680
14:00+8с5923100 0.0 10233254
17:00+8ссз5927100 0.0 10233191
20:00+6ссз383991 0.0 1024728
25 апреля, вс
вс2523:00+1сз285877 0.0 1025166
02:00−1сз29615 0.0 1026239
05:00−2ссз28700 0.0 1026208
08:00+1с48500 0.0 1026785
11:00+6с483452 0.0 10252023
14:00+8ссв3728100 0.0 10232599
17:00+9сз3627100 0.0 10222472
20:00+5сз5104672 0.0 1022732
26 апреля, пн
пн2623:00+2сз311705 0.0 1023354
02:000ссз277925 0.0 1022155
05:00−2с22780 0.0 102226
08:00+2с24582 0.0 1021358
11:00+7с34341 0.0 10201446
14:00+10ссв24262 0.0 10181913
17:00+10ссз23295 0.0 10171963
20:00+5зсз37523 0.0 1017319
27 апреля, вт
вт2723:00+1сз11745 0.0 101710
02:000ссз11815 0.0 101610
05:00−1сз00885 0.0 101610
08:00+4ссв12650 0.0 1015250
11:00+10св23415 0.0 10141710
14:00+11ссв433290 0.0 10132496
17:00+10св443316 0.0 10131778
20:00+7ссв37525 0.0 1013409